Regional Weather Roundup
Issued by NWS New Orleans/Baton Rouge, LA

Home | Current Version | Previous Version | Text Only | Print | Product List | Glossary Off
Versions: 1 2 3 4 5 6 7 8 9 10 11 12 13 14 15 16 17 18 19 20 21 22 23 24 25 26 27 28 29 30 31 32 33 34 35 36 37 38 39 40 41 42 43 44 45 46 47 48 49 50

459
ASUS44 KLIX 271901
RWRLIX
NEW ORLEANS REGIONAL WEATHER ROUNDUP
NATIONAL WEATHER SERVICE NEW ORLEANS LA
100 PM CST FRI FEB 27 2015

NOTE: "FAIR" INDICATES FEW OR NO CLOUDS BELOW 12,000 FEET WITH NO
      SIGNIFICANT WEATHER AND/OR OBSTRUCTIONS TO VISIBILITY.
      SKY/WX - SKY CONDITION AND SIGNIFICANT WEATHER.
      TMP - AIR TEMPERATURE.     DP    - DEWPOINT TEMPERATURE.
      RH  - RELATIVE HUMIDITY.   PRES  - PRESSURE.
      HI  - HEAT INDEX.          WCI   - WIND CHILL INDEX.

*  THESE STATIONS ARE NOT NWS OR FAA STATIONS AND ARE NOT UNDER
   NWS QUALITY CONTROL.

LAZ038-040-048-061>063-065>067-069-272000-
SOUTHEAST LOUISIANA

CITY           SKY/WX    TMP DP  RH WIND       PRES   REMARKS
N.O. AUDUBON   NOT AVBL
N.O. INTL ARPT MOSUNNY   50  34  54 N13       30.35F
N.O. LAKEFRONT SUNNY     50  31  48 NE9       30.36F
SLIDELL        SUNNY     52  31  44 E10       30.34F
BATON ROUGE    SUNNY     48  33  56 E8        30.37F
BOOTHVILLE     PTSUNNY   48  40  73 NE15G22   30.33F
BELLE CHASSE   MOSUNNY   52  31  44 E10G21    30.33F
BOGALUSA*        N/A     46  33  60 N15       30.39F
GALLIANO*      PTCLDY    51  37  58 MISG      30.34F
NEW ROADS*     NOT AVBL
GONZALES*      NOT AVBL
HAMMOND*       NOT AVBL
HOUMA*         NOT AVBL
PORT FOURCHON* NOT AVBL

$$

MSZ070-080>082-272000-
SOUTHERN MISSISSIPPI

CITY           SKY/WX    TMP DP  RH WIND       PRES   REMARKS
MCCOMB         SUNNY     43  28  55 N9        30.38F
GULFPORT       SUNNY     52  30  43 NE13G20   30.33F
BILOXI         SUNNY     53  30  41 NE12      30.33F
PASCAGOULA     SUNNY     54  31  41 N10       30.33F
STENNIS ARPT*  SUNNY     52  27  37 NE12G20   30.35F

$$

COASTAL OBSERVATIONS
LAKE AND NEARSHORE STATIONS

STATION/POSITION TIME  TEMP    WIND        PRES    WAVE
                       AIR SEA DIR/SP/G            HT/PER
                 (UTC) (F)     (DEG/KT/KT) (MB)    (FT/S)
PASCAGOULA       1800   51      30/ 10/ 15 1026.9
WAVELAND YACHT   1800   46 47   40/  9/ 12 1027.5
GRAND ISLE       1800   45 51   50/ 13/ 19 1027.5
SOUTHWEST PASS   1800   56 48   50/ 21/ 25 1026.7
NEW CANAL        1800   44      50/  8/ 11 1028.4
SHELL BEACH      1800   43 50   30/ 15/ 18 1027.8

OFFSHORE STATIONS

STATION/POSITION TIME  TEMP    WIND        PRES    WAVE
                       AIR SEA DIR/SP/G            HT/PER
                 (UTC) (F)     (DEG/KT/KT) (MB)    (FT/S)
64 S DAUPHIN ISL 1816   51 67   60/ 19/ 25 1026.1    6/ 7

$$




USA.gov is the U.S. government's official web portal to all federal, state and local government web resources and services.